Location: *
(41.7492°S, 135.4150°W)
Time: 23:32:19
(UTC+00:00)

Hubble Space Telescope - Pass Details

Date: 20 September 2021
Orbit: 535 x 539 km, 28.5° (Epoch: 25 October)

Event Time Altitude Azimuth Distance (km) Brightness Sun altitude
Exits shadow 13:04:43 13° 8° (N) 1,626 3.1 -20.8°
Drops below altitude 10° 13:06:17 10° 30° (NNE) 1,795 3.6 -20.5°
Sets 13:09:39 0° 58° (ENE) 2,685 4.9 -19.9°
